| time (UTC) | temp F | wind direction | speed MPH | gust MPH | rain 1hr in | rain 24hr in | rain mn in | humidity % | barometer mb |
| 20260509033627 | 53 | 126 | 0.0 | 0.0 | 0.00 | 0.21 | 0.21 | 94 | 1007.6 |
| 20260509033115 | 53 | 157 | 0.0 | 0.0 | 0.00 | 0.21 | 0.21 | 94 | 1007.8 |
| 20260509032630 | 53 | 157 | 0.0 | 0.0 | 0.00 | 0.21 | 0.21 | 94 | 1007.8 |
| 20260509032117 | 53 | 138 | 0.0 | 1.0 | 0.00 | 0.21 | 0.21 | 94 | 1007.9 |
| 20260509031632 | 53 | 130 | 0.0 | 1.0 | 0.00 | 0.21 | 0.21 | 94 | 1007.9 |
| 20260509031149 | 53 | 211 | 0.0 | 1.0 | 0.00 | 0.21 | 0.21 | 94 | 1007.9 |
| 20260509030614 | 54 | 211 | 0.0 | 1.0 | 0.00 | 0.21 | 0.21 | 94 | 1008.0 |
| 20260509030129 | 53 | 220 | 0.0 | 2.0 | 0.00 | 0.21 | 0.21 | 94 | 1007.9 |
| 20260509025617 | 54 | 220 | 0.0 | 2.0 | 0.00 | 0.21 | 0.21 | 94 | 1008.0 |
| 20260509025112 | 54 | 199 | 0.0 | 2.0 | 0.00 | 0.21 | 0.21 | 94 | 1007.8 |
| 20260509024620 | 54 | 208 | 0.0 | 1.0 | 0.00 | 0.21 | 0.21 | 94 | 1007.9 |
| 20260509024115 | 54 | 190 | 1.0 | 1.0 | 0.00 | 0.21 | 0.21 | 94 | 1007.8 |
| 20260509023624 | 54 | 225 | 0.0 | 2.0 | 0.00 | 0.21 | 0.21 | 93 | 1007.9 |
| 20260509023115 | 54 | 209 | 1.0 | 2.0 | 0.00 | 0.21 | 0.21 | 93 | 1007.9 |
| 20260509022619 | 54 | 215 | 0.0 | 2.0 | 0.00 | 0.21 | 0.21 | 93 | 1008.0 |
| 20260509022112 | 54 | 192 | 1.0 | 2.0 | 0.00 | 0.21 | 0.21 | 93 | 1007.8 |
| 20260509021616 | 54 | 216 | 0.0 | 2.0 | 0.00 | 0.21 | 0.21 | 93 | 1007.8 |
| 20260509021132 | 54 | 177 | 0.0 | 2.0 | 0.00 | 0.21 | 0.21 | 93 | 1007.8 |
| 20260509020648 | 54 | 208 | 1.0 | 3.0 | 0.00 | 0.21 | 0.21 | 93 | 1007.8 |
| 20260509020122 | 54 | 205 | 1.0 | 3.0 | 0.00 | 0.21 | 0.21 | 93 | 1007.8 |
| 20260509015610 | 54 | 225 | 1.0 | 4.0 | 0.00 | 0.21 | 0.21 | 92 | 1007.8 |
| 20260509015126 | 54 | 223 | 2.0 | 4.0 | 0.00 | 0.21 | 0.21 | 92 | 1007.8 |
| 20260509014612 | 54 | 225 | 2.0 | 3.0 | 0.00 | 0.21 | 0.21 | 92 | 1007.8 |
| 20260509014126 | 54 | 192 | 2.0 | 6.0 | 0.00 | 0.21 | 0.21 | 92 | 1008.0 |
| 20260509013613 | 55 | 228 | 3.0 | 6.0 | 0.00 | 0.21 | 0.21 | 92 | 1007.9 |
| 20260509013128 | 55 | 216 | 2.0 | 6.0 | 0.00 | 0.21 | 0.21 | 91 | 1007.9 |
| 20260509012615 | 55 | 230 | 3.0 | 6.0 | 0.00 | 0.21 | 0.21 | 91 | 1008.0 |
| 20260509012109 | 55 | 220 | 3.0 | 8.0 | 0.00 | 0.21 | 0.21 | 91 | 1007.8 |
| 20260509011647 | 55 | 227 | 4.0 | 8.0 | 0.00 | 0.21 | 0.21 | 91 | 1007.9 |
| 20260509011114 | 55 | 212 | 5.0 | 8.0 | 0.00 | 0.21 | 0.21 | 91 | 1007.7 |
| 20260509010630 | 55 | 202 | 5.0 | 8.0 | 0.00 | 0.21 | 0.21 | 90 | 1007.8 |
| 20260509010116 | 55 | 204 | 5.0 | 8.0 | 0.00 | 0.21 | 0.21 | 90 | 1007.7 |
| 20260509005609 | 55 | 232 | 5.0 | 8.0 | 0.00 | 0.21 | 0.21 | 90 | 1007.7 |
| 20260509005124 | 55 | 223 | 5.0 | 8.0 | 0.00 | 0.21 | 0.21 | 90 | 1007.8 |
| 20260509004612 | 55 | 222 | 5.0 | 8.0 | 0.00 | 0.21 | 0.21 | 89 | 1007.7 |
| 20260509004127 | 56 | 221 | 4.0 | 8.0 | 0.00 | 0.21 | 0.21 | 89 | 1007.8 |
| 20260509003631 | 56 | 200 | 6.0 | 10.0 | 0.00 | 0.21 | 0.21 | 89 | 1007.8 |
| 20260509003124 | 56 | 230 | 6.0 | 10.0 | 0.00 | 0.21 | 0.21 | 88 | 1007.8 |
| 20260509002619 | 56 | 208 | 6.0 | 10.0 | 0.00 | 0.21 | 0.21 | 88 | 1007.8 |
| 20260509002127 | 56 | 212 | 5.0 | 9.0 | 0.00 | 0.21 | 0.21 | 88 | 1007.8 |
| 20260509001622 | 56 | 218 | 6.0 | 9.0 | 0.00 | 0.21 | 0.21 | 88 | 1007.9 |
| 20260509001110 | 56 | 223 | 4.0 | 11.0 | 0.00 | 0.21 | 0.21 | 88 | 1007.8 |
| 20260509000625 | 56 | 203 | 6.0 | 11.0 | 0.00 | 0.21 | 0.21 | 88 | 1007.9 |
| 20260509000133 | 56 | 214 | 6.0 | 8.0 | 0.00 | 0.21 | 0.21 | 88 | 1007.8 |
| 20260508235628 | 56 | 218 | 5.0 | 8.0 | 0.00 | 0.21 | 0.21 | 88 | 1007.7 |
| 20260508235121 | 56 | 230 | 7.0 | 8.0 | 0.00 | 0.21 | 0.21 | 88 | 1007.9 |
| 20260508234628 | 56 | 197 | 5.0 | 7.0 | 0.00 | 0.21 | 0.21 | 88 | 1008.0 |
| 20260508234122 | 56 | 213 | 5.0 | 8.0 | 0.00 | 0.21 | 0.21 | 89 | 1008.0 |
| 20260508233610 | 56 | 222 | 6.0 | 8.0 | 0.00 | 0.21 | 0.21 | 89 | 1008.0 |
| 20260508233125 | 57 | 207 | 5.0 | 9.0 | 0.00 | 0.21 | 0.21 | 89 | 1008.1 |
| 20260508232621 | 57 | 195 | 5.0 | 9.0 | 0.00 | 0.21 | 0.21 | 89 | 1008.1 |
| 20260508232109 | 57 | 196 | 5.0 | 8.0 | 0.00 | 0.21 | 0.21 | 88 | 1008.0 |
| 20260508231625 | 57 | 223 | 6.0 | 9.0 | 0.00 | 0.21 | 0.21 | 88 | 1008.1 |
| 20260508231135 | 57 | 212 | 5.0 | 9.0 | 0.00 | 0.21 | 0.21 | 88 | 1008.1 |
| 20260508230629 | 57 | 205 | 5.0 | 9.0 | 0.00 | 0.21 | 0.21 | 87 | 1008.0 |
| 20260508230123 | 57 | 190 | 6.0 | 9.0 | 0.00 | 0.21 | 0.21 | 88 | 1008.1 |
| 20260508225610 | 57 | 226 | 5.0 | 9.0 | 0.00 | 0.21 | 0.21 | 88 | 1008.1 |
| 20260508225124 | 57 | 223 | 5.0 | 9.0 | 0.00 | 0.21 | 0.21 | 88 | 1008.0 |
| 20260508224611 | 57 | 208 | 4.0 | 7.0 | 0.00 | 0.21 | 0.21 | 88 | 1008.0 |
| 20260508224122 | 57 | 222 | 4.0 | 9.0 | 0.00 | 0.21 | 0.21 | 88 | 1008.0 |
| 20260508223637 | 57 | 249 | 6.0 | 9.0 | 0.00 | 0.21 | 0.21 | 88 | 1008.2 |
| 20260508223154 | 57 | 225 | 4.0 | 8.0 | 0.01 | 0.21 | 0.21 | 89 | 1008.2 |
| 20260508222621 | 57 | 224 | 4.0 | 10.0 | 0.01 | 0.21 | 0.21 | 90 | 1008.2 |
| 20260508222135 | 57 | 218 | 5.0 | 10.0 | 0.01 | 0.21 | 0.21 | 89 | 1008.0 |
| 20260508221623 | 57 | 213 | 6.0 | 10.0 | 0.01 | 0.21 | 0.21 | 89 | 1008.1 |
| 20260508221109 | 57 | 228 | 4.0 | 8.0 | 0.01 | 0.21 | 0.21 | 91 | 1008.2 |
| 20260508220624 | 57 | 211 | 5.0 | 9.0 | 0.01 | 0.21 | 0.21 | 90 | 1008.3 |
| 20260508220118 | 57 | 223 | 6.0 | 9.0 | 0.01 | 0.21 | 0.21 | 90 | 1008.2 |
| 20260508215626 | 56 | 216 | 5.0 | 8.0 | 0.01 | 0.21 | 0.21 | 89 | 1008.2 |
| 20260508215121 | 56 | 216 | 5.0 | 8.0 | 0.01 | 0.21 | 0.21 | 89 | 1008.1 |
| 20260508214635 | 56 | 216 | 5.0 | 9.0 | 0.01 | 0.21 | 0.21 | 89 | 1008.1 |
| 20260508214123 | 56 | 235 | 6.0 | 11.0 | 0.01 | 0.21 | 0.21 | 88 | 1008.0 |
| 20260508213610 | 56 | 223 | 7.0 | 11.0 | 0.01 | 0.21 | 0.21 | 88 | 1008.1 |
| 20260508213125 | 56 | 216 | 7.0 | 11.0 | 0.00 | 0.20 | 0.20 | 88 | 1008.1 |
| 20260508212639 | 56 | 218 | 7.0 | 11.0 | 0.00 | 0.20 | 0.20 | 88 | 1008.2 |
| 20260508212116 | 56 | 220 | 8.0 | 11.0 | 0.01 | 0.20 | 0.20 | 87 | 1008.2 |
| 20260508211622 | 57 | 221 | 7.0 | 12.0 | 0.01 | 0.20 | 0.20 | 88 | 1008.4 |
| 20260508210625 | 57 | 226 | 7.0 | 10.0 | 0.03 | 0.20 | 0.20 | 89 | 1008.5 |
| 20260508210119 | 57 | 215 | 6.0 | 9.0 | 0.03 | 0.20 | 0.20 | 90 | 1008.6 |
| 20260508205652 | 56 | 197 | 6.0 | 10.0 | 0.04 | 0.20 | 0.20 | 90 | 1008.6 |
| 20260508205149 | 57 | 209 | 6.0 | 10.0 | 0.04 | 0.20 | 0.20 | 90 | 1008.6 |
| 20260508204615 | 57 | 224 | 6.0 | 10.0 | 0.05 | 0.20 | 0.20 | 91 | 1008.7 |
| 20260508204130 | 56 | 200 | 6.0 | 9.0 | 0.06 | 0.20 | 0.20 | 90 | 1008.6 |
| 20260508203617 | 56 | 218 | 5.0 | 8.0 | 0.06 | 0.20 | 0.20 | 90 | 1008.7 |
| 20260508203113 | 56 | 210 | 6.0 | 8.0 | 0.07 | 0.20 | 0.20 | 90 | 1008.9 |
| 20260508202621 | 56 | 225 | 4.0 | 8.0 | 0.07 | 0.20 | 0.20 | 90 | 1009.0 |
| 20260508202115 | 56 | 237 | 6.0 | 8.0 | 0.07 | 0.19 | 0.19 | 89 | 1009.0 |
| 20260508201652 | 56 | 266 | 5.0 | 9.0 | 0.07 | 0.19 | 0.19 | 89 | 1009.1 |
| 20260508201118 | 56 | 244 | 6.0 | 9.0 | 0.09 | 0.18 | 0.18 | 90 | 1009.1 |
| 20260508200633 | 56 | 263 | 5.0 | 7.0 | 0.09 | 0.17 | 0.17 | 91 | 1009.2 |
| 20260508200118 | 56 | 247 | 2.0 | 7.0 | 0.11 | 0.17 | 0.17 | 91 | 1009.2 |
| 20260508195610 | 56 | 258 | 3.0 | 7.0 | 0.12 | 0.16 | 0.16 | 91 | 1009.5 |
| 20260508195119 | 56 | 228 | 4.0 | 6.0 | 0.13 | 0.16 | 0.16 | 91 | 1009.6 |
| 20260508194612 | 56 | 245 | 3.0 | 7.0 | 0.12 | 0.15 | 0.15 | 91 | 1009.7 |
| 20260508194128 | 56 | 255 | 4.0 | 8.0 | 0.12 | 0.14 | 0.14 | 90 | 1009.7 |
| 20260508193614 | 56 | 263 | 5.0 | 8.0 | 0.12 | 0.14 | 0.14 | 90 | 1009.7 |
| 20260508193131 | 56 | 240 | 6.0 | 10.0 | 0.11 | 0.13 | 0.13 | 90 | 1009.7 |
| 20260508192619 | 56 | 258 | 6.0 | 10.0 | 0.11 | 0.13 | 0.13 | 90 | 1010.0 |
| 20260508192135 | 56 | 273 | 6.0 | 11.0 | 0.11 | 0.12 | 0.12 | 89 | 1009.9 |
| 20260508191648 | 56 | 264 | 6.0 | 12.0 | 0.11 | 0.12 | 0.12 | 88 | 1009.9 |
| 20260508191142 | 57 | 265 | 6.0 | 14.0 | 0.08 | 0.09 | 0.09 | 88 | 1010.0 |
| 20260508190609 | 57 | 285 | 8.0 | 14.0 | 0.06 | 0.07 | 0.07 | 86 | 1009.9 |
| 20260508190124 | 57 | 267 | 7.0 | 11.0 | 0.05 | 0.06 | 0.06 | 85 | 1010.0 |
| 20260508185611 | 58 | 268 | 8.0 | 16.0 | 0.03 | 0.04 | 0.04 | 82 | 1010.0 |
| 20260508185126 | 58 | 276 | 10.0 | 18.0 | 0.02 | 0.03 | 0.03 | 79 | 1009.9 |
| 20260508184620 | 59 | 284 | 11.0 | 17.0 | 0.02 | 0.03 | 0.03 | 77 | 1009.8 |
| 20260508184129 | 60 | 257 | 8.0 | 13.0 | 0.01 | 0.02 | 0.02 | 78 | 1009.9 |
| 20260508183622 | 60 | 278 | 8.0 | 13.0 | 0.01 | 0.02 | 0.02 | 78 | 1009.9 |
| 20260508183116 | 60 | 252 | 9.0 | 14.0 | 0.01 | 0.02 | 0.02 | 76 | 1009.9 |
| 20260508182630 | 60 | 268 | 9.0 | 16.0 | 0.01 | 0.02 | 0.02 | 74 | 1009.9 |
| 20260508182118 | 61 | 264 | 10.0 | 18.0 | 0.00 | 0.01 | 0.01 | 71 | 1009.9 |
| 20260508181613 | 63 | 270 | 14.0 | 18.0 | 0.00 | 0.01 | 0.01 | 65 | 1009.7 |
| 20260508181127 | 63 | 240 | 8.0 | 14.0 | 0.00 | 0.01 | 0.01 | 66 | 1009.7 |
| 20260508180615 | 63 | 221 | 9.0 | 14.0 | 0.00 | 0.01 | 0.01 | 64 | 1009.7 |
| 20260508180130 | 64 | 244 | 10.0 | 14.0 | 0.00 | 0.01 | 0.01 | 64 | 1009.8 |
| 20260508175619 | 64 | 221 | 8.0 | 13.0 | 0.00 | 0.01 | 0.01 | 66 | 1009.9 |
| 20260508175112 | 63 | 241 | 8.0 | 11.0 | 0.00 | 0.01 | 0.01 | 64 | 1009.9 |
| 20260508174627 | 63 | 249 | 7.0 | 12.0 | 0.00 | 0.01 | 0.01 | 65 | 1010.0 |
| 20260508174114 | 62 | 228 | 6.0 | 12.0 | 0.00 | 0.01 | 0.01 | 66 | 1010.1 |
| 20260508173630 | 62 | 231 | 7.0 | 9.0 | 0.00 | 0.01 | 0.01 | 64 | 1010.2 |
| 20260508173117 | 62 | 228 | 7.0 | 9.0 | 0.00 | 0.01 | 0.01 | 64 | 1010.1 |
| 20260508172627 | 62 | 226 | 5.0 | 12.0 | 0.00 | 0.01 | 0.01 | 66 | 1010.1 |
| 20260508172137 | 62 | 235 | 5.0 | 12.0 | 0.00 | 0.01 | 0.01 | 67 | 1010.3 |
| 20260508171610 | 61 | 212 | 5.0 | 9.0 | 0.00 | 0.01 | 0.01 | 66 | 1010.3 |
| 20260508171124 | 61 | 213 | 7.0 | 11.0 | 0.00 | 0.01 | 0.01 | 65 | 1010.5 |
| 20260508170612 | 61 | 203 | 7.0 | 11.0 | 0.00 | 0.01 | 0.01 | 64 | 1010.5 |
| 20260508170127 | 61 | 218 | 5.0 | 10.0 | 0.00 | 0.01 | 0.01 | 65 | 1010.6 |
| 20260508165615 | 61 | 208 | 8.0 | 12.0 | 0.00 | 0.01 | 0.01 | 65 | 1010.6 |
| 20260508165129 | 61 | 226 | 6.0 | 12.0 | 0.00 | 0.01 | 0.01 | 64 | 1010.8 |
| 20260508164615 | 61 | 241 | 8.0 | 11.0 | 0.00 | 0.01 | 0.01 | 65 | 1010.8 |
| 20260508164109 | 60 | 261 | 8.0 | 13.0 | 0.00 | 0.01 | 0.01 | 64 | 1010.9 |
| 20260508163615 | 60 | 244 | 6.0 | 13.0 | 0.00 | 0.01 | 0.01 | 64 | 1011.0 |
| 20260508163130 | 60 | 244 | 6.0 | 11.0 | 0.00 | 0.01 | 0.01 | 66 | 1011.0 |
| 20260508162626 | 60 | 225 | 6.0 | 10.0 | 0.00 | 0.01 | 0.01 | 66 | 1011.1 |
| 20260508162111 | 59 | 228 | 5.0 | 10.0 | 0.00 | 0.01 | 0.01 | 67 | 1011.2 |
| 20260508161626 | 59 | 229 | 7.0 | 10.0 | 0.00 | 0.01 | 0.01 | 66 | 1011.4 |
| 20260508161114 | 59 | 220 | 6.0 | 10.0 | 0.00 | 0.01 | 0.01 | 66 | 1011.3 |
| 20260508160629 | 59 | 232 | 7.0 | 10.0 | 0.00 | 0.01 | 0.01 | 66 | 1011.3 |
| 20260508160116 | 59 | 251 | 7.0 | 13.0 | 0.00 | 0.01 | 0.01 | 67 | 1011.3 |
| 20260508155631 | 59 | 232 | 7.0 | 13.0 | 0.00 | 0.01 | 0.01 | 68 | 1011.3 |
| 20260508155119 | 60 | 209 | 8.0 | 12.0 | 0.00 | 0.01 | 0.01 | 65 | 1011.4 |
| 20260508154635 | 60 | 261 | 6.0 | 10.0 | 0.00 | 0.01 | 0.01 | 66 | 1011.4 |
| 20260508154130 | 59 | 201 | 8.0 | 10.0 | 0.00 | 0.01 | 0.01 | 66 | 1011.5 |
| 20260508153616 | 59 | 213 | 6.0 | 9.0 | 0.00 | 0.01 | 0.01 | 67 | 1011.4 |
| 20260508153111 | 59 | 202 | 6.0 | 10.0 | 0.00 | 0.01 | 0.01 | 67 | 1011.3 |
| 20260508152618 | 59 | 216 | 7.0 | 10.0 | 0.00 | 0.01 | 0.01 | 68 | 1011.5 |
| 20260508152112 | 59 | 202 | 6.0 | 11.0 | 0.00 | 0.01 | 0.01 | 69 | 1011.4 |
| 20260508151616 | 58 | 244 | 8.0 | 13.0 | 0.00 | 0.01 | 0.01 | 67 | 1011.5 |
| 20260508151128 | 58 | 207 | 8.0 | 13.0 | 0.00 | 0.01 | 0.01 | 69 | 1011.7 |
| 20260508150616 | 58 | 211 | 7.0 | 10.0 | 0.00 | 0.01 | 0.01 | 70 | 1011.6 |
| 20260508150110 | 57 | 248 | 6.0 | 10.0 | 0.00 | 0.01 | 0.01 | 70 | 1011.6 |
| 20260508145620 | 56 | 219 | 7.0 | 10.0 | 0.00 | 0.01 | 0.01 | 70 | 1011.7 |
| 20260508145114 | 56 | 253 | 3.0 | 7.0 | 0.00 | 0.01 | 0.01 | 74 | 1011.8 |
| 20260508144630 | 55 | 228 | 5.0 | 7.0 | 0.00 | 0.01 | 0.01 | 71 | 1011.9 |
| 20260508144117 | 55 | 233 | 4.0 | 7.0 | 0.00 | 0.01 | 0.01 | 73 | 1011.9 |
| 20260508143632 | 54 | 255 | 3.0 | 6.0 | 0.00 | 0.01 | 0.01 | 74 | 1012.0 |
| 20260508143126 | 54 | 258 | 4.0 | 6.0 | 0.00 | 0.01 | 0.01 | 76 | 1012.0 |
| 20260508142614 | 54 | 272 | 3.0 | 6.0 | 0.00 | 0.01 | 0.01 | 78 | 1012.2 |
| 20260508142130 | 54 | 258 | 4.0 | 7.0 | 0.00 | 0.01 | 0.01 | 77 | 1012.2 |
| 20260508141617 | 53 | 250 | 4.0 | 7.0 | 0.00 | 0.01 | 0.01 | 79 | 1012.1 |
| 20260508141132 | 53 | 242 | 4.0 | 6.0 | 0.00 | 0.01 | 0.01 | 78 | 1012.0 |
| 20260508140621 | 53 | 218 | 5.0 | 6.0 | 0.00 | 0.01 | 0.01 | 77 | 1012.2 |
| 20260508140136 | 53 | 239 | 3.0 | 4.0 | 0.00 | 0.01 | 0.01 | 78 | 1012.2 |
| 20260508135610 | 53 | 245 | 2.0 | 4.0 | 0.00 | 0.01 | 0.01 | 79 | 1012.3 |
| 20260508135119 | 52 | 242 | 2.0 | 5.0 | 0.00 | 0.01 | 0.01 | 79 | 1012.4 |
| 20260508134614 | 52 | 240 | 3.0 | 5.0 | 0.00 | 0.01 | 0.01 | 79 | 1012.4 |
| 20260508134129 | 52 | 250 | 2.0 | 6.0 | 0.00 | 0.01 | 0.01 | 79 | 1012.4 |
| 20260508133616 | 53 | 270 | 4.0 | 7.0 | 0.00 | 0.01 | 0.01 | 77 | 1012.5 |
| 20260508133132 | 53 | 270 | 5.0 | 9.0 | 0.00 | 0.01 | 0.01 | 76 | 1012.4 |
| 20260508132619 | 53 | 256 | 6.0 | 9.0 | 0.00 | 0.01 | 0.01 | 76 | 1012.4 |
| 20260508132129 | 53 | 239 | 4.0 | 8.0 | 0.00 | 0.01 | 0.01 | 77 | 1012.2 |
| 20260508131617 | 53 | 230 | 5.0 | 8.0 | 0.00 | 0.01 | 0.01 | 77 | 1012.1 |
| 20260508131132 | 53 | 218 | 5.0 | 8.0 | 0.00 | 0.01 | 0.01 | 78 | 1012.0 |
| 20260508130641 | 52 | 205 | 4.0 | 7.0 | 0.00 | 0.01 | 0.01 | 78 | 1011.9 |
| 20260508130114 | 52 | 214 | 3.0 | 7.0 | 0.00 | 0.01 | 0.01 | 78 | 1011.9 |
| 20260508125651 | 52 | 214 | 5.0 | 7.0 | 0.00 | 0.01 | 0.01 | 79 | 1011.9 |
| 20260508125115 | 51 | 214 | 4.0 | 6.0 | 0.00 | 0.01 | 0.01 | 82 | 1012.1 |
| 20260508124610 | 51 | 215 | 4.0 | 6.0 | 0.00 | 0.01 | 0.01 | 82 | 1012.0 |
| 20260508124124 | 51 | 222 | 2.0 | 4.0 | 0.00 | 0.01 | 0.01 | 83 | 1012.2 |
| 20260508123612 | 50 | 206 | 3.0 | 4.0 | 0.00 | 0.01 | 0.01 | 83 | 1012.2 |
| 20260508123126 | 50 | 211 | 2.0 | 4.0 | 0.00 | 0.01 | 0.01 | 83 | 1012.1 |
| 20260508122612 | 50 | 221 | 2.0 | 4.0 | 0.00 | 0.01 | 0.01 | 84 | 1012.2 |
| 20260508122127 | 50 | 224 | 2.0 | 4.0 | 0.00 | 0.01 | 0.01 | 84 | 1012.1 |
| 20260508121614 | 50 | 227 | 2.0 | 4.0 | 0.01 | 0.01 | 0.01 | 84 | 1012.2 |
| 20260508121110 | 50 | 230 | 3.0 | 5.0 | 0.01 | 0.01 | 0.01 | 84 | 1012.0 |
| 20260508120619 | 50 | 211 | 3.0 | 5.0 | 0.01 | 0.01 | 0.01 | 84 | 1012.1 |
| 20260508120135 | 50 | 222 | 3.0 | 6.0 | 0.01 | 0.01 | 0.01 | 84 | 1012.1 |
| 20260508115629 | 50 | 210 | 4.0 | 6.0 | 0.01 | 0.01 | 0.01 | 84 | 1012.1 |
| 20260508115117 | 50 | 228 | 4.0 | 7.0 | 0.01 | 0.01 | 0.01 | 84 | 1012.1 |
| 20260508114612 | 49 | 254 | 4.0 | 8.0 | 0.01 | 0.01 | 0.01 | 84 | 1012.0 |
| 20260508114121 | 49 | 232 | 4.0 | 11.0 | 0.01 | 0.01 | 0.01 | 84 | 1011.9 |
| 20260508113616 | 49 | 247 | 7.0 | 11.0 | 0.01 | 0.01 | 0.01 | 84 | 1011.8 |
| 20260508113124 | 50 | 211 | 7.0 | 13.0 | 0.01 | 0.01 | 0.01 | 84 | 1011.8 |
| 20260508112619 | 50 | 230 | 8.0 | 13.0 | 0.01 | 0.01 | 0.01 | 83 | 1011.6 |
| 20260508112131 | 50 | 231 | 7.0 | 11.0 | 0.01 | 0.01 | 0.01 | 83 | 1011.4 |
| 20260508111618 | 50 | 261 | 7.0 | 11.0 | 0.00 | 0.00 | 0.00 | 83 | 1011.7 |
| 20260508111134 | 50 | 211 | 7.0 | 11.0 | 0.00 | 0.00 | 0.00 | 83 | 1011.9 |
| 20260508110621 | 50 | 245 | 8.0 | 11.0 | 0.00 | 0.00 | 0.00 | 82 | 1011.8 |
| 20260508110137 | 50 | 254 | 7.0 | 12.0 | 0.00 | 0.00 | 0.00 | 82 | 1011.8 |
| 20260508105622 | 50 | 279 | 8.0 | 12.0 | 0.00 | 0.00 | 0.00 | 81 | 1011.7 |
| 20260508105138 | 50 | 249 | 8.0 | 12.0 | 0.00 | 0.00 | 0.00 | 80 | 1011.5 |
| 20260508104632 | 51 | 238 | 9.0 | 12.0 | 0.00 | 0.00 | 0.00 | 78 | 1011.3 |
| 20260508104120 | 51 | 228 | 6.0 | 11.0 | 0.00 | 0.00 | 0.00 | 76 | 1011.7 |
| 20260508103636 | 51 | 249 | 8.0 | 12.0 | 0.00 | 0.00 | 0.00 | 74 | 1011.5 |
| 20260508103122 | 51 | 230 | 7.0 | 14.0 | 0.00 | 0.00 | 0.00 | 73 | 1011.6 |
| 20260508102617 | 52 | 223 | 8.0 | 14.0 | 0.00 | 0.00 | 0.00 | 73 | 1011.7 |
| 20260508102155 | 51 | 234 | 8.0 | 12.0 | 0.00 | 0.00 | 0.00 | 74 | 1011.6 |
| 20260508101643 | 51 | 232 | 7.0 | 11.0 | 0.00 | 0.00 | 0.00 | 75 | 1011.5 |
| 20260508101139 | 51 | 233 | 7.0 | 12.0 | 0.00 | 0.00 | 0.00 | 75 | 1011.7 |
| 20260508100633 | 51 | 242 | 8.0 | 12.0 | 0.00 | 0.00 | 0.00 | 75 | 1011.5 |
| 20260508100120 | 51 | 235 | 7.0 | 12.0 | 0.00 | 0.00 | 0.00 | 76 | 1011.4 |
| 20260508095638 | 51 | 249 | 7.0 | 13.0 | 0.00 | 0.00 | 0.00 | 75 | 1011.4 |
| 20260508095132 | 51 | 225 | 7.0 | 13.0 | 0.00 | 0.00 | 0.00 | 75 | 1011.3 |
| 20260508094618 | 52 | 232 | 8.0 | 17.0 | 0.00 | 0.00 | 0.00 | 74 | 1011.4 |
| 20260508094113 | 52 | 240 | 11.0 | 17.0 | 0.00 | 0.00 | 0.00 | 73 | 1011.4 |
| 20260508093616 | 52 | 216 | 7.0 | 15.0 | 0.00 | 0.00 | 0.00 | 74 | 1011.6 |
| 20260508093111 | 52 | 250 | 9.0 | 16.0 | 0.00 | 0.00 | 0.00 | 73 | 1011.6 |
| 20260508092619 | 52 | 245 | 9.0 | 16.0 | 0.00 | 0.00 | 0.00 | 73 | 1011.7 |
| 20260508092114 | 52 | 226 | 9.0 | 16.0 | 0.00 | 0.00 | 0.00 | 73 | 1011.8 |
| 20260508091623 | 52 | 259 | 10.0 | 18.0 | 0.00 | 0.00 | 0.00 | 72 | 1011.8 |
| 20260508091116 | 52 | 238 | 12.0 | 23.0 | 0.00 | 0.00 | 0.00 | 71 | 1011.9 |
| 20260508090625 | 52 | 226 | 11.0 | 19.0 | 0.00 | 0.00 | 0.00 | 71 | 1011.9 |
| 20260508090119 | 52 | 246 | 8.0 | 13.0 | 0.00 | 0.00 | 0.00 | 71 | 1012.2 |
| 20260508085634 | 52 | 256 | 8.0 | 13.0 | 0.00 | 0.00 | 0.00 | 72 | 1011.9 |
| 20260508085120 | 52 | 257 | 9.0 | 13.0 | 0.00 | 0.00 | 0.00 | 72 | 1011.8 |
| 20260508084636 | 52 | 242 | 8.0 | 13.0 | 0.00 | 0.00 | 0.00 | 72 | 1011.7 |
| 20260508084153 | 52 | 236 | 7.0 | 11.0 | 0.00 | 0.00 | 0.00 | 73 | 1011.6 |
| 20260508083619 | 51 | 232 | 7.0 | 11.0 | 0.00 | 0.00 | 0.00 | 75 | 1011.5 |
| 20260508083136 | 51 | 237 | 7.0 | 9.0 | 0.00 | 0.00 | 0.00 | 76 | 1011.5 |
| 20260508082623 | 51 | 256 | 5.0 | 11.0 | 0.00 | 0.00 | 0.00 | 77 | 1011.5 |
| 20260508082119 | 51 | 247 | 7.0 | 11.0 | 0.00 | 0.00 | 0.00 | 76 | 1011.6 |
| 20260508081627 | 51 | 225 | 5.0 | 10.0 | 0.00 | 0.00 | 0.00 | 77 | 1011.5 |
| 20260508081121 | 51 | 237 | 6.0 | 12.0 | 0.00 | 0.00 | 0.00 | 77 | 1011.4 |
| 20260508080609 | 51 | 241 | 7.0 | 11.0 | 0.00 | 0.00 | 0.00 | 76 | 1011.3 |
| 20260508080124 | 51 | 246 | 6.0 | 10.0 | 0.00 | 0.00 | 0.00 | 76 | 1011.4 |
| 20260508075634 | 51 | 235 | 7.0 | 12.0 | 0.00 | 0.00 | 0.00 | 75 | 1011.4 |
| 20260508075122 | 51 | 232 | 7.0 | 14.0 | 0.00 | 0.00 | 0.00 | 74 | 1011.6 |
| 20260508074617 | 51 | 235 | 10.0 | 16.0 | 0.00 | 0.00 | 0.00 | 74 | 1011.6 |
| 20260508074127 | 51 | 237 | 8.0 | 16.0 | 0.00 | 0.00 | 0.00 | 73 | 1011.6 |
| 20260508073620 | 51 | 233 | 9.0 | 16.0 | 0.00 | 0.00 | 0.00 | 73 | 1011.8 |
| 20260508073125 | 51 | 244 | 9.0 | 16.0 | 0.00 | 0.00 | 0.00 | 73 | 1011.9 |
| 20260508072616 | 51 | 236 | 9.0 | 14.0 | 0.00 | 0.00 | 0.00 | 73 | 1011.7 |
| 20260508072124 | 51 | 223 | 7.0 | 13.0 | 0.00 | 0.00 | 0.00 | 74 | 1011.9 |
| 20260508071640 | 51 | 237 | 9.0 | 13.0 | 0.00 | 0.00 | 0.00 | 74 | 1011.7 |
| 20260508071114 | 51 | 233 | 8.0 | 13.0 | 0.00 | 0.00 | 0.00 | 74 | 1011.7 |
| 20260508070620 | 51 | 230 | 9.0 | 13.0 | 0.00 | 0.00 | 0.00 | 74 | 1011.8 |
| 20260508070135 | 51 | 229 | 8.0 | 12.0 | 0.00 | 0.00 | 0.00 | 74 | 1011.9 |
| 20260508065630 | 51 | 240 | 9.0 | 12.0 | 0.00 | 0.00 | 0.00 | 75 | 1011.9 |
| 20260508065117 | 50 | 229 | 8.0 | 13.0 | 0.00 | 0.00 | 0.00 | 75 | 1011.9 |
| 20260508064612 | 50 | 241 | 6.0 | 13.0 | 0.00 | 0.00 | 0.00 | 76 | 1012.0 |
| 20260508064149 | 50 | 239 | 7.0 | 12.0 | 0.00 | 0.00 | 0.00 | 76 | 1011.9 |
| 20260508063617 | 50 | 248 | 7.0 | 10.0 | 0.00 | 0.00 | 0.00 | 76 | 1012.0 |
| 20260508063127 | 50 | 250 | 6.0 | 10.0 | 0.00 | 0.00 | 0.00 | 77 | 1011.9 |
| 20260508062642 | 49 | 224 | 6.0 | 10.0 | 0.00 | 0.00 | 0.00 | 77 | 1012.0 |
| 20260508062130 | 49 | 224 | 6.0 | 9.0 | 0.00 | 0.00 | 0.00 | 78 | 1011.9 |
| 20260508061623 | 48 | 229 | 4.0 | 7.0 | 0.00 | 0.00 | 0.00 | 80 | 1011.9 |
| 20260508061109 | 48 | 218 | 3.0 | 7.0 | 0.00 | 0.00 | 0.00 | 81 | 1012.0 |
| 20260508060646 | 48 | 224 | 2.0 | 5.0 | 0.00 | 0.00 | 0.00 | 82 | 1012.0 |
| 20260508060113 | 47 | 195 | 2.0 | 4.0 | 0.00 | 0.00 | 0.00 | 82 | 1012.1 |
| 20260508055624 | 47 | 223 | 2.0 | 4.0 | 0.00 | 0.00 | 0.00 | 82 | 1012.1 |
| 20260508055118 | 47 | 214 | 2.0 | 3.0 | 0.00 | 0.00 | 0.00 | 83 | 1012.1 |
| 20260508054627 | 47 | 211 | 2.0 | 4.0 | 0.00 | 0.00 | 0.00 | 83 | 1012.2 |
| 20260508054122 | 47 | 215 | 2.0 | 4.0 | 0.00 | 0.00 | 0.00 | 83 | 1012.2 |
| 20260508053609 | 47 | 212 | 3.0 | 4.0 | 0.00 | 0.00 | 0.00 | 84 | 1012.3 |
| 20260508053124 | 47 | 232 | 2.0 | 3.0 | 0.00 | 0.00 | 0.00 | 83 | 1012.3 |
| 20260508052611 | 48 | 217 | 2.0 | 6.0 | 0.00 | 0.00 | 0.00 | 83 | 1012.3 |
| 20260508052126 | 48 | 221 | 3.0 | 6.0 | 0.00 | 0.00 | 0.00 | 83 | 1012.3 |
| 20260508051614 | 47 | 211 | 3.0 | 6.0 | 0.00 | 0.00 | 0.00 | 83 | 1012.3 |
| 20260508051129 | 47 | 223 | 4.0 | 5.0 | 0.00 | 0.00 | 0.00 | 84 | 1012.3 |
| 20260508050617 | 47 | 228 | 2.0 | 4.0 | 0.00 | 0.00 | 0.00 | 84 | 1012.3 |
| 20260508050111 | 47 | 231 | 2.0 | 3.0 | 0.00 | 0.00 | 0.00 | 84 | 1012.2 |
| 20260508045618 | 47 | 223 | 2.0 | 3.0 | 0.00 | 0.00 | 0.00 | 83 | 1012.3 |
| 20260508045111 | 47 | 211 | 2.0 | 3.0 | 0.00 | 0.00 | 0.00 | 82 | 1012.3 |
| 20260508044626 | 47 | 204 | 2.0 | 4.0 | 0.00 | 0.00 | 0.00 | 82 | 1012.3 |
| 20260508044114 | 47 | 212 | 2.0 | 4.0 | 0.00 | 0.00 | 0.00 | 84 | 1012.4 |
| 20260508043629 | 46 | 176 | 2.0 | 4.0 | 0.00 | 0.00 | 0.00 | 84 | 1012.3 |
| 20260508043116 | 47 | 144 | 2.0 | 3.0 | 0.00 | 0.00 | 0.00 | 82 | 1012.3 |
| 20260508042611 | 47 | 155 | 2.0 | 3.0 | 0.00 | 0.00 | 0.00 | 82 | 1012.3 |
| 20260508042119 | 48 | 159 | 3.0 | 3.0 | 0.00 | 0.00 | 0.00 | 81 | 1012.3 |
| 20260508041635 | 48 | 165 | 2.0 | 3.0 | 0.00 | 0.00 | 0.00 | 79 | 1012.4 |
| 20260508041129 | 49 | 158 | 2.0 | 3.0 | 0.00 | 0.00 | 0.00 | 79 | 1012.3 |
| 20260508040616 | 49 | 171 | 2.0 | 5.0 | 0.00 | 0.00 | 0.00 | 78 | 1012.4 |
| 20260508035625 | 49 | 208 | 2.0 | 5.0 | 0.00 | 0.00 | 0.00 | 78 | 1012.3 |
| 20260508035113 | 49 | 213 | 3.0 | 6.0 | 0.00 | 0.00 | 0.00 | 77 | 1012.4 |
| 20260508034628 | 50 | 204 | 3.0 | 6.0 | 0.00 | 0.00 | 0.00 | 77 | 1012.3 |
| 20260508034116 | 50 | 167 | 3.0 | 4.0 | 0.00 | 0.00 | 0.00 | 77 | 1012.4 |